Location: Long Barn
(38.0930°N, 120.1344°W)
Time: 18:13:11
(UTC+00:00)

Thor Agena Rocket - Pass Details

Date: 05 August 2024
Orbit: 756 x 805 km, 99.1° (Epoch: 12 September)

Event Time Altitude Azimuth Distance (km) Brightness Sun altitude
Rises 12:01:15 0° 14° (NNE) 3,230 7.5 -12.4°
Reaches altitude 10° 12:03:34 10° 15° (NNE) 2,296 6.7 -12.0°
Maximum altitude 12:08:37 83° 104° (ESE) 767 3.5 -11.1°
Drops below altitude 10° 12:13:38 10° 192° (SSW) 2,275 5.6 -10.3°
Enters shadow 12:15:31 - 193° (SSW) 3,035 6.2 -10.0°
